Location: Newark
(51.2000°N, 58.6167°E)
Time: 09:15:17
(UTC+00:00)

Envisat - Pass Details

Date: 02 October 2020
Orbit: 764 x 766 km, 98.1° (Epoch: 23 October)

Event Time Altitude Azimuth Distance (km) Brightness Sun altitude
Rises 00:46:43 0° 28° (NNE) 3,244 6.8 -13.5°
Reaches altitude 10° 00:50:03 10° 51° (NE) 2,311 6.5 -13.0°
Maximum altitude 00:52:59 15° 86° (E) 1,964 6.4 -12.5°
Drops below altitude 10° 00:55:54 10° 122° (ESE) 2,301 6.2 -12.1°
Sets 00:59:12 0° 145° (SE) 3,221 6.6 -11.6°
